Location: Newark
(53.3503°N, 9.6158°W)
Time: 00:52:36
(UTC+00:00)

ISS - Visible Passes

Search period start: 21 October 2019 00:00
Search period end: 31 October 2019 00:00
Orbit: 411 x 421 km, 51.6° (Epoch: 21 October)

Date Brightness Start Highest point End Pass type
(mag) Time Alt. Az. Time Alt. Az. Time Alt. Az.
24 Oct -0.5 06:24:57 10° SSE 06:25:58 11° SE 06:26:59 10° ESE visible
26 Oct -1.3 06:22:28 10° SSW 06:25:04 21° SSE 06:27:40 10° E visible
27 Oct -1.0 05:34:38 10° S 05:36:39 15° SE 05:38:41 10° ESE visible
28 Oct -0.8 04:47:41 10° SSE 04:48:16 10° SE 04:48:51 10° SE visible
28 Oct -2.3 06:21:09 10° SW 06:24:16 35° SSE 06:27:23 10° E visible
29 Oct -2.0 05:34:09 18° SSW 05:35:45 27° SSE 05:38:39 10° E visible
30 Oct -1.4 04:47:44 19° SE 04:47:44 19° SE 04:49:48 10° E visible
30 Oct -3.1 06:20:38 13° WSW 06:23:32 52° SSE 06:26:50 10° E visible
